Overview Statistics Trail Chart Weather Telemetry Raw packets
 

This is the latest recevied weather packets stored in our database for station/object YD2CLX-11. If no packets are shown the sender has not sent any weather packets the latest 10 day(s).

<< 47 48 49 50 51 52 53 >>
Time Temp. Humidity Pressure Rain* Wind** Luminosity Snow
1787871769 22.78° C 75% 1001.4 hPa - - - -
1787871168 21.11° C 80% 1001.3 hPa - - - -
1787870567 19.44° C 85% 1001.2 hPa - - - -
1787869966 19.44° C 85% 1001.2 hPa - - - -
1787869365 18.89° C 86% 1001.2 hPa - - - -
1787868765 19.44° C 86% 1001.2 hPa - - - -
1787868164 19.44° C 85% 1001 hPa - - - -
1787867563 18.89° C 85% 1001 hPa - - - -
1787866962 19.44° C 85% 1000.9 hPa - - - -
1787866361 19.44° C 85% 1000.8 hPa - - - -
1787865760 19.44° C 85% 1000.7 hPa - - - -
1787865160 19.44° C 85% 1000.7 hPa - - - -
1787864559 19.44° C 84% 1000.6 hPa - - - -
1787863958 19.44° C 85% 1000.5 hPa - - - -
1787863357 19.44° C 84% 1000.4 hPa - - - -
1787862757 19.44° C 84% 1000.4 hPa - - - -
1787862156 19.44° C 84% 1000.3 hPa - - - -
1787860954 20° C 84% 1000.3 hPa - - - -
1787860353 20° C 84% 1000.4 hPa - - - -
1787859753 20° C 84% 1000.4 hPa - - - -
1787859152 20° C 84% 1000.3 hPa - - - -
1787858551 20° C 83% 1000.4 hPa - - - -
1787857953 20.56° C 84% 1000.4 hPa - - - -
1787857349 20.56° C 84% 1000.4 hPa - - - -
1787856749 20.56° C 84% 1000.6 hPa - - - -

* Rain since midnight (hover to see other rain measurements)
** Current wind speed in m/s (hover to see current wind gust speed)